Location: Albany
(35.0170°S, 117.8920°E)
Time: 16:35:46
(UTC+08:00)

Transit 2A - Pass Details

Date: 31 January 2021
Orbit: 601 x 958 km, 66.7° (Epoch: 02 March)

Event Time Altitude Azimuth Distance (km) Brightness Sun altitude
Rises 13:59:01 0° 330° (NNW) 2,949 9.4 62.1°
Reaches altitude 10° 14:01:12 10° 329° (NNW) 2,086 8.8 61.7°
Maximum altitude 14:05:56 76° 242° (WSW) 743 7.5 60.9°
Drops below altitude 10° 14:11:14 10° 156° (SSE) 2,334 8.4 59.9°
Sets 14:13:48 0° 154° (SSE) 3,329 9.1 59.5°
